[[{"header":{"parameterUnit":"m.s-1","parameterCategory":1,"la1":30.2991,"la2":30.254,"lo1":-89.0895,"lo2":-89.0444,"dy":0.0017,"dx":0.0017,"nx":28,"ny":28,"refTime":"2023-10-31T21:00:00:Z","depth":0,"parameterNumber":2,"parameterNumberName":"U-component_of_WINDS"},"data":[0,0,0,0,0,0,0,0,0,0,0,0,0,0,0,0,0,0,0,0,0,0,0,0,0,0,0,0,0,0,0,0,0,0,0,0,0,0,0,0,0,0,0,0,0,0,0,0,0,0,0,0,0,0,0,0,0,0,1.3233,1.3233,0,1.3196,1.3196,1.3195,1.3176,1.3176,1.3176,1.3176,1.3135,1.3134,1.3133,0,0,0,0,0,0,0,0,0,0,0,0,0,1.3286,1.3285,1.3233,1.3233,1.3232,1.3196,1.3196,1.3195,1.3176,1.3176,1.3176,1.3176,1.3135,1.3134,1.3133,0,0,0,0,0,0,0,0,0,0,0,0,0,1.3257,1.3285,1.3233,1.3218,1.3217,1.3196,1.3196,1.3195,1.3176,1.3176,1.3176,1.3176,1.3136,1.3134,1.3133,1.3123,0,0,1.3128,1.3127,0,0,0,0,0,0,0,0,1.3259,1.3255,1.3221,1.3219,1.3218,1.3191,1.3199,1.3171,1.3176,1.3191,1.3176,1.3176,1.3153,1.315,1.3143,1.3121,1.3119,1.3128,1.3127,1.3126,1.3125,0,0,0,0,0,0,0,1.3261,1.3257,1.3218,1.3221,1.3218,1.3213,1.3209,1.3194,1.3173,1.319,1.3189,1.3185,1.3152,1.3145,1.3142,1.3119,1.3128,1.3126,1.3125,1.3125,1.3088,1.3088,0,0,0,0,0,0,1.3266,1.3259,1.3219,1.3217,1.3239,1.3212,1.3208,1.3199,1.3173,1.3169,1.3185,1.3184,1.3148,1.3144,1.3141,1.3128,1.3126,1.3124,1.3123,1.3088,1.3088,1.3088,0,0,0,0,0,0,1.3267,1.3262,1.3221,1.3238,1.3232,1.3211,1.3202,1.3199,1.3191,1.3169,1.3165,1.3181,1.3148,1.3143,1.3128,1.3126,1.3124,1.3122,1.3088,1.3088,1.3088,1.3103,0,0,0,0,0,0,1.3269,1.3263,1.3259,1.3238,1.3231,1.3209,1.3202,1.3198,1.3189,1.3187,1.3164,1.3161,1.3147,1.3131,1.3126,1.3124,1.3121,1.3088,1.3088,1.3088,1.3102,1.3103,1.3104,0,0,0,0,0,1.327,1.3264,1.3259,1.3254,1.3226,1.3209,1.3205,1.3191,1.3189,1.3185,1.3171,1.3161,1.3128,1.3129,1.3124,1.3121,1.3088,1.3088,1.3088,1.3102,1.3103,1.3104,0,0,0,0,0,0,1.3284,1.3261,1.3255,1.3242,1.3228,1.3206,1.32,1.3193,1.3178,1.3177,1.3159,1.3154,1.3141,1.313,1.3132,1.3111,1.3107,1.3106,1.3119,1.312,1.3121,1.3123,1.312,0,0,0,0,0,1.3286,1.3275,1.3255,1.3245,1.3238,1.3221,1.3213,1.3203,1.3188,1.3181,1.3166,1.3151,1.3137,1.3128,1.3114,1.3101,1.3096,1.3097,1.3098,1.3099,1.3098,1.3091,1.3091,1.3088,1.3088,1.3088,0,0,1.3289,1.3275,1.3268,1.3247,1.3235,1.3224,1.3216,1.3204,1.3195,1.3179,1.3164,1.3153,1.3135,1.3121,1.3114,1.3111,1.3098,1.3099,1.31,1.3098,1.3091,1.3091,1.3091,1.3088,1.3088,1.3088,0,0,1.3288,1.3276,1.3267,1.3256,1.3239,1.3228,1.3226,1.3206,1.3198,1.3183,1.3172,1.3161,1.3137,1.3125,1.3116,1.3113,1.3104,1.3109,1.3113,1.3107,1.3107,1.3107,1.3106,1.3106,1.3108,1.3108,1.3108,0,1.3293,1.3276,1.3263,1.3252,1.3243,1.3231,1.3221,1.3211,1.3189,1.3183,1.3181,1.3152,1.3138,1.3122,1.3122,1.3115,1.3112,1.3111,1.3108,1.3108,1.3108,1.3107,1.3106,1.3109,1.3109,1.3109,1.3109,0,1.3284,1.3272,1.3267,1.3248,1.3239,1.3228,1.3214,1.3206,1.3198,1.3187,1.3172,1.3157,1.314,1.3135,1.3126,1.3118,1.3117,1.3112,1.3106,1.3109,1.3108,1.3107,1.311,1.311,1.311,1.3109,0,0,1.3288,1.3265,1.3263,1.3255,1.3236,1.3226,1.3216,1.3201,1.3194,1.3181,1.3171,1.3153,1.3148,1.3138,1.3128,1.3122,1.3122,1.3118,1.3117,1.3119,1.3112,1.3116,1.3115,1.3116,1.3116,1.3116,1.3113,0,1.3285,1.3266,1.3255,1.3241,1.323,1.3219,1.321,1.3197,1.3188,1.3177,1.3166,1.3153,1.3148,1.3142,1.3136,1.3123,1.312,1.3123,1.3107,1.3106,1.3111,1.3114,1.3118,1.3116,1.3113,1.3113,1.3113,0,1.3277,1.3266,1.3251,1.3234,1.323,1.3222,1.3207,1.3198,1.3183,1.3177,1.3166,1.3157,1.3146,1.3143,1.3127,1.313,1.3123,1.3116,1.3115,1.3112,1.3109,1.3111,1.3115,1.3114,1.3112,1.3112,1.3112,0,1.3282,1.3262,1.3251,1.3245,1.3225,1.322,1.3212,1.3198,1.319,1.3178,1.3172,1.3159,1.3151,1.314,1.3127,1.3127,1.3113,1.3109,1.3107,1.3107,1.3103,1.3103,1.3105,1.31,1.31,1.31,1.31,0,1.3278,1.327,1.3253,1.3246,1.3236,1.3224,1.3215,1.3205,1.3193,1.3184,1.3174,1.3165,1.3149,1.3139,1.3129,1.3118,1.3114,1.3108,1.3106,1.3109,1.3109,1.3103,1.3102,1.31,1.31,1.31,1.31,0,1.3281,1.327,1.3257,1.3241,1.3237,1.323,1.3216,1.3209,1.32,1.3188,1.3185,1.317,1.3157,1.3144,1.3126,1.312,1.3109,1.3105,1.3114,1.3112,1.311,1.3111,1.3107,1.3106,1.3103,1.3103,1.3103,0,1.3279,1.3273,1.3256,1.325,1.3242,1.3232,1.3224,1.3213,1.3205,1.319,1.3184,1.3171,1.316,1.3141,1.3128,1.3115,1.3111,1.3111,1.3109,1.3112,1.311,1.3111,1.311,1.3111,1.3111,1.3111,1.3111,0,1.3277,1.3272,1.3262,1.325,1.3242,1.3232,1.3221,1.3216,1.3202,1.3194,1.3182,1.3174,1.3157,1.3145,1.3131,1.3122,1.3114,1.3112,1.3111,1.3113,1.3118,1.3115,1.3115,1.3112,1.3112,1.3112,1.3112,1.3112,1.3277,1.3271,1.3259,1.3248,1.3239,1.323,1.3223,1.3213,1.3203,1.3189,1.3183,1.3171,1.3158,1.3139,1.3131,1.3121,1.3118,1.3116,1.3116,1.3115,1.3116,1.3121,1.3118,1.3118,1.3118,1.3118,1.3118,0,1.3273,1.3266,1.3256,1.3243,1.3234,1.323,1.3218,1.3211,1.3201,1.3191,1.3181,1.3167,1.3155,1.3143,1.313,1.3125,1.3121,1.3122,1.3121,1.312,1.3119,1.3121,1.3125,1.3125,1.3125,1.3125,1.3125,1.3125,1.3271,1.326,1.3254,1.324,1.3232,1.3221,1.3215,1.3206,1.3198,1.3184,1.3174,1.3167,1.3155,1.3142,1.3131,1.3128,1.3123,1.3125,1.3121,1.312,1.3119,1.3119,1.3121,1.3125,1.3125,1.3122,1.3122,1.3122]},{"header":{"parameterUnit":"m.s-1","parameterCategory":1,"la1":30.2991,"la2":30.254,"lo1":-89.0895,"lo2":-89.0444,"dy":0.0017,"dx":0.0017,"nx":28,"ny":28,"refTime":"2023-10-31T21:00:00:Z","depth":0,"parameterNumber":3,"parameterNumberName":"V-component_of_WINDS"},"data":[0,0,0,0,0,0,0,0,0,0,0,0,0,0,0,0,0,0,0,0,0,0,0,0,0,0,0,0,0,0,0,0,0,0,0,0,0,0,0,0,0,0,0,0,0,0,0,0,0,0,0,0,0,0,0,0,0,0,-9.4891,-9.4893,0,-9.5056,-9.5058,-9.506,-9.4946,-9.494,-9.4935,-9.493,-9.5091,-9.51,-9.5109,0,0,0,0,0,0,0,0,0,0,0,0,0,-9.447,-9.4478,-9.4891,-9.4893,-9.4895,-9.5056,-9.5058,-9.506,-9.4946,-9.494,-9.4934,-9.4928,-9.5089,-9.5099,-9.511,0,0,0,0,0,0,0,0,0,0,0,0,0,-9.4645,-9.4481,-9.489,-9.4858,-9.4856,-9.5055,-9.5058,-9.5061,-9.4948,-9.494,-9.4932,-9.4925,-9.5085,-9.5098,-9.5112,-9.5349,0,0,-9.5153,-9.5159,0,0,0,0,0,0,0,0,-9.4635,-9.4661,-9.486,-9.486,-9.4859,-9.4972,-9.4968,-9.5157,-9.495,-9.4913,-9.493,-9.4921,-9.5058,-9.5073,-9.512,-9.5356,-9.5363,-9.5154,-9.5162,-9.5168,-9.5172,0,0,0,0,0,0,0,-9.4623,-9.4653,-9.4956,-9.4863,-9.4863,-9.4832,-9.4849,-9.5004,-9.5026,-9.4915,-9.4908,-9.4929,-9.5056,-9.5108,-9.5123,-9.5366,-9.5154,-9.5166,-9.5174,-9.518,-9.5805,-9.5814,0,0,0,0,0,0,-9.4615,-9.4644,-9.495,-9.4961,-9.4726,-9.4846,-9.4865,-9.4944,-9.5024,-9.5029,-9.4936,-9.4923,-9.5088,-9.5108,-9.5129,-9.5413,-9.5168,-9.5181,-9.5189,-9.5797,-9.5807,-9.5816,0,0,0,0,0,0,-9.4607,-9.4644,-9.4944,-9.48,-9.4836,-9.4862,-9.4951,-9.4951,-9.5003,-9.5039,-9.5042,-9.4985,-9.5083,-9.5109,-9.5296,-9.5417,-9.5187,-9.5199,-9.5787,-9.58,-9.5812,-9.5983,0,0,0,0,0,0,-9.4595,-9.4641,-9.4733,-9.4803,-9.4844,-9.5111,-9.4959,-9.496,-9.5028,-9.5013,-9.5086,-9.5091,-9.5079,-9.5276,-9.5309,-9.5431,-9.521,-9.5776,-9.5793,-9.5808,-9.5967,-9.6,-9.6028,0,0,0,0,0,-9.458,-9.4773,-9.4739,-9.4776,-9.496,-9.5118,-9.5141,-9.5126,-9.5038,-9.513,-9.5153,-9.5089,-9.5398,-9.5296,-9.5333,-9.546,-9.5769,-9.5788,-9.5807,-9.5953,-9.5993,-9.6028,0,0,0,0,0,0,-9.4713,-9.4781,-9.4744,-9.4965,-9.5038,-9.5099,-9.5214,-9.5169,-9.5265,-9.5247,-9.5221,-9.5239,-9.5434,-9.5465,-9.5351,-9.5695,-9.5569,-9.5596,-9.5668,-9.5707,-9.5737,-9.5725,-9.5221,0,0,0,0,0,-9.4769,-9.4894,-9.4945,-9.5135,-9.5174,-9.5188,-9.5256,-9.5239,-9.5311,-9.534,-9.5376,-9.5447,-9.556,-9.5634,-9.574,-9.597,-9.5984,-9.6076,-9.6107,-9.6132,-9.6156,-9.6281,-9.6322,-9.5879,-9.5879,-9.5879,0,0,-9.4883,-9.4936,-9.5016,-9.5164,-9.5217,-9.5345,-9.5214,-9.5355,-9.5449,-9.536,-9.5539,-9.5569,-9.5645,-9.5856,-9.5949,-9.5887,-9.6282,-9.6157,-9.6176,-9.6187,-9.6305,-9.6347,-9.6384,-9.5892,-9.589,-9.5888,0,0,-9.5159,-9.5212,-9.5377,-9.5434,-9.5518,-9.5527,-9.5567,-9.5636,-9.5653,-9.5834,-9.577,-9.588,-9.6075,-9.6133,-9.6188,-9.6487,-9.6432,-9.6522,-9.6684,-9.6805,-9.684,-9.6871,-9.6979,-9.7018,-9.6546,-9.6546,-9.6546,0,-9.529,-9.5484,-9.5466,-9.5614,-9.568,-9.5608,-9.5774,-9.5829,-9.5943,-9.5989,-9.5919,-9.6164,-9.621,-9.6433,-9.6507,-9.6553,-9.6597,-9.6514,-9.6837,-9.6868,-9.6896,-9.6999,-9.7039,-9.6557,-9.6555,-9.6554,-9.6553,0,-9.5642,-9.5777,-9.5899,-9.6015,-9.6095,-9.625,-9.6255,-9.6338,-9.6313,-9.6329,-9.6513,-9.6567,-9.6683,-9.6734,-9.671,-9.6954,-9.6913,-9.6841,-9.6714,-9.695,-9.7045,-9.7084,-9.6572,-9.6568,-9.6565,-9.6562,0,0,-9.6004,-9.611,-9.6156,-9.6208,-9.6296,-9.6399,-9.6551,-9.6668,-9.674,-9.682,-9.6946,-9.7114,-9.7048,-9.7111,-9.7092,-9.7199,-9.7434,-9.7113,-9.7115,-9.7172,-9.7707,-9.7762,-9.7808,-9.7398,-9.7405,-9.7411,-9.7701,0,-9.6285,-9.6554,-9.6544,-9.6794,-9.6918,-9.6852,-9.6985,-9.7052,-9.7071,-9.7177,-9.7196,-9.7316,-9.722,-9.7258,-9.7361,-9.7384,-9.7542,-9.7363,-9.7514,-9.752,-9.7498,-9.7857,-9.7915,-9.8186,-9.7738,-9.7744,-9.7749,0,-9.6649,-9.6746,-9.701,-9.7082,-9.7133,-9.7253,-9.736,-9.7463,-9.7538,-9.7544,-9.7615,-9.758,-9.7732,-9.7602,-9.781,-9.7689,-9.775,-9.7771,-9.7781,-9.7795,-9.7649,-9.7881,-9.8272,-9.8313,-9.7808,-9.7803,-9.7799,0,-9.6889,-9.7085,-9.7269,-9.7315,-9.7403,-9.7489,-9.7528,-9.7596,-9.7667,-9.776,-9.7806,-9.7913,-9.7973,-9.8056,-9.805,-9.7956,-9.8262,-9.8131,-9.827,-9.8271,-9.8338,-9.8334,-9.8745,-9.8377,-9.8376,-9.8375,-9.8374,0,-9.7204,-9.7368,-9.7378,-9.7491,-9.7672,-9.7658,-9.7837,-9.7867,-9.7929,-9.8045,-9.7993,-9.8102,-9.8088,-9.8198,-9.8193,-9.8367,-9.8394,-9.8402,-9.8399,-9.8407,-9.8407,-9.8447,-9.8428,-9.8386,-9.8384,-9.8381,-9.838,0,-9.7503,-9.7516,-9.7712,-9.778,-9.7801,-9.7932,-9.7989,-9.8095,-9.811,-9.8258,-9.8292,-9.8314,-9.8441,-9.8444,-9.8587,-9.8585,-9.8797,-9.8772,-9.8774,-9.8769,-9.8909,-9.8896,-9.936,-9.9421,-9.9013,-9.9017,-9.902,0,-9.7703,-9.7829,-9.7912,-9.7988,-9.8034,-9.8156,-9.823,-9.822,-9.8298,-9.8394,-9.8489,-9.8611,-9.8709,-9.8914,-9.8941,-9.9051,-9.9029,-9.9184,-9.9045,-9.905,-9.9032,-9.9025,-9.9038,-9.9211,-9.9216,-9.922,-9.9223,0,-9.8059,-9.806,-9.817,-9.8283,-9.8374,-9.8461,-9.8542,-9.8607,-9.8606,-9.8696,-9.8827,-9.8903,-9.9052,-9.9174,-9.9281,-9.9318,-9.9271,-9.9267,-9.9305,-9.9315,-9.9311,-9.9316,-9.8848,-9.9256,-9.9252,-9.925,-9.9248,-9.9247,-9.8315,-9.8424,-9.8501,-9.8625,-9.8686,-9.8763,-9.8867,-9.8897,-9.9007,-9.913,-9.9116,-9.9262,-9.9333,-9.9472,-9.952,-9.9632,-9.9577,-9.9632,-9.9646,-9.9661,-9.9676,-9.9293,-9.9651,-9.965,-9.9649,-9.9648,-9.9647,0,-9.8668,-9.8715,-9.883,-9.8947,-9.9045,-9.8995,-9.9082,-9.9167,-9.9297,-9.9369,-9.9467,-9.9617,-9.9736,-9.9774,-9.9888,-9.997,-9.9952,-10.0001,-9.9995,-10.0004,-9.9718,-9.9674,-10.0014,-10.0014,-10.0014,-10.0014,-10.0014,-10.0014,-9.8864,-9.9047,-9.9057,-9.9268,-9.9312,-9.9458,-9.9512,-9.9583,-9.9641,-9.9812,-9.9912,-9.9937,-9.9995,-10.0114,-10.022,-10.0227,-10.0272,-10.0331,-10.033,-10.0061,-10.0024,-9.9989,-9.9948,-10.034,-10.0341,-10.0607,-10.0609,-10.0611]}]]